Regional Weather Roundup
Issued by NWS

Home | Current Version | Previous Version | Graphics & Text | Print | Product List | Glossary On
Versions: 1 2 3 4 5 6 7 8 9 10 11 12 13 14 15 16 17 18 19 20 21 22 23 24 25 26 27 28 29 30 31 32 33 34 35 36 37 38 39 40 41 42 43 44 45 46 47 48 49 50
000
ASUS43 KLSX 280110
RWRMO

WEATHER SUMMARY FOR MISSOURI
NATIONAL WEATHER SERVICE SPRINGFIELD MO
800 PM CDT FRI MAY 27 2016

NOTE: "FAIR" INDICATES FEW OR NO CLOUDS BELOW 12,000 FEET WITH NO
       SIGNIFICANT WEATHER AND/OR OBSTRUCTIONS TO VISIBILITY.
       CURRENT SKY AND/OR WEATHER CONDITIONS ARE NOT AVAILABLE FOR
       CHILLICOTHE AND FARMINGTON.

MOZ001>031-035>038-043-044-053-054-280200-
...NORTHERN AND WESTERN MISSOURI...

CITY           SKY/WX    TMP DP  RH WIND       PRES   REMARKS
KANSAS CTY INT CLOUDY    67  63  87 NE7       29.71R
KANSAS C DTWN  CLOUDY    72  67  84 E7        29.70R
LEE`S SUMMIT   CLOUDY    73  65  75 S9        29.72R
ST JOSEPH      LGT RAIN  71  65  81 NE3       29.71R
CHILLICOTHE      N/A     68  66  93 VRB3      29.73R
KIRKSVILLE     LGT RAIN  67  65  93 NE3       29.75S

$$
MOZ066>068-077>081-088>096-101>105-280200-
...SOUTHWEST MISSOURI...

CITY           SKY/WX    TMP DP  RH WIND       PRES   REMARKS
SPRINGFIELD    PTCLDY    72  66  81 SE9       29.74R
JOPLIN         CLOUDY    73  67  81 SE5       29.72R
BRANSON        CLOUDY    72  64  78 S8G16     29.78R

$$
MOZ032>034-039>042-045>050-055>058-069>072-280200-
...CENTRAL MISSOURI...

CITY           SKY/WX    TMP DP  RH WIND       PRES   REMARKS
COLUMBIA       LGT RAIN  68  66  93 S9        29.74F
JEFFERSON CITY CLOUDY    69  68  96 SE7       29.74S FOG
ROLLA          CLOUDY    68  65  90 S10G21    29.77S
SEDALIA        CLOUDY    74  68  81 S8        29.74R
WHITEMAN AFB   CLOUDY    73  72  98 S7        29.72R
WARRENSBURG    CLOUDY    72  68  88 S6        29.72R

$$
MOZ051-052-059>065-280200-
...EAST CENTRAL MISSOURI...

CITY           SKY/WX    TMP DP  RH WIND       PRES   REMARKS
ST LOUIS INTL  CLOUDY    73  68  84 S8        29.81R
SPIRIT OF STL  CLOUDY    71  67  87 S3        29.79R
ST CHARLES     CLOUDY    72  70  93 S9        29.79S

$$
MOZ072>076-082>087-097>100-106>115-280200-
...SOUTH CENTRAL AND SOUTHEAST MISSOURI...

CITY           SKY/WX    TMP DP  RH WIND       PRES   REMARKS
CAPE GIRARDEAU CLOUDY    73  69  87 SE7       29.86R
FARMINGTON     CLOUDY    70  67  90 SE8       29.85S
POPLAR BLUFF   CLOUDY    74  69  85 SE12      29.82F
WEST PLAINS    CLOUDY    70  66  87 S12G20    29.82R

$$




USA.gov is the U.S. government's official web portal to all federal, state and local government web resources and services.